Weather History for Oshkosh, WI

Change the Weather History Date:

Monday, April 22, 2013

  Actual Average Record
Temperature  
Mean Temperature 52 °F -  
Max Temperature 64 °F 59 °F 91 °F (1980)
Min Temperature 41 °F 37 °F 26 °F (1978)
Degree Days  
Heating Degree Days 12    
Growing Degree Days 2 (Base 50)    
Moisture  
Dew Point 36 °F    
Average Humidity 58    
Maximum Humidity 76    
Minimum Humidity 40    
Precipitation  
Precipitation 0.00 in - - ()
Sea Level Pressure  
Sea Level Pressure 30.15 in    
Wind  
Wind Speed 13 mph (South)    
Max Wind Speed 22 mph    
Max Gust Speed 31 mph    
Visibility 10 miles    
Events      
Averages and records for this station are not official NWS values.
T = Trace of Precipitation, MM = Missing Value Source: NWS Daily Summary

Daily Weather History Graph

Daily Weather History Graph

Search for Another Location

Airport:

Trip Planner

Search our weather history database for the weather conditions in past years. The results will help you decide how hot, cold, wet, or windy it might be!

Date:

Astronomy

Apr. 22, 2013 Rise Set
Actual Time 5:59 AM CDT 7:46 PM CDT
Civil Twilight 5:28 AM CDT 8:17 PM CDT
Nautical Twilight 4:50 AM CDT 8:55 PM CDT
Astronomical Twilight 4:10 AM CDT 9:36 PM CDT
Moon 4:29 PM CDT (4/22) 4:00 AM CDT (4/22)
Length of Visible Light 14h 49m
Length of Day
13h 47m
Waxing Gibbous, 88% of the Moon is Illuminated
Apr 22
Waxing Gibbous
Apr 25
Full
May 2
Last Quarter
May 9
New
May 17
First Quarter

Hourly Weather History & Observations

Time (CDT) Temp. Windchill Dew Point Humidity Pressure Visibility Wind Dir Wind Speed Gust Speed Precip Events Conditions
1:53 AM 43.0 °F 34.0 °F 32.0 °F 65% 30.23 in 10.0 mi South 21.9 mph 31.1 mph N/A   Scattered Clouds
2:53 AM 43.0 °F 34.2 °F 32.0 °F 65% 30.22 in 10.0 mi South 20.7 mph - N/A   Mostly Cloudy
3:53 AM 43.0 °F 34.5 °F 32.0 °F 65% 30.22 in 10.0 mi South 19.6 mph - N/A   Overcast
4:53 AM 43.0 °F 37.2 °F 33.1 °F 68% 30.25 in 10.0 mi SW 10.4 mph 19.6 mph 0.00 in   Overcast
5:53 AM 41.0 °F 36.4 °F 34.0 °F 76% 30.25 in 10.0 mi South 6.9 mph - N/A   Overcast
6:53 AM 42.1 °F 37.7 °F 34.0 °F 73% 30.25 in 10.0 mi SSE 6.9 mph - N/A   Overcast
7:53 AM 45.0 °F 41.2 °F 35.1 °F 68% 30.24 in 10.0 mi South 6.9 mph - N/A   Overcast
8:53 AM 46.0 °F 40.6 °F 35.1 °F 66% 30.23 in 10.0 mi South 11.5 mph - N/A   Overcast
9:53 AM 46.0 °F 41.4 °F 35.1 °F 66% 30.23 in 10.0 mi South 9.2 mph - N/A   Overcast
10:53 AM 51.1 °F - 37.0 °F 59% 30.22 in 10.0 mi South 10.4 mph - N/A   Mostly Cloudy
11:53 AM 54.0 °F - 39.0 °F 57% 30.20 in 10.0 mi South 10.4 mph - N/A   Scattered Clouds
12:53 PM 57.0 °F - 37.9 °F 49% 30.18 in 10.0 mi SSW 10.4 mph - N/A   Overcast
1:53 PM 60.1 °F - 39.0 °F 46% 30.15 in 10.0 mi SSW 10.4 mph - N/A   Mostly Cloudy
2:53 PM 61.0 °F - 39.9 °F 46% 30.12 in 10.0 mi South 6.9 mph - N/A   Overcast
3:53 PM 64.9 °F - 39.9 °F 40% 30.09 in 10.0 mi SSW 8.1 mph - N/A   Overcast
4:53 PM 57.0 °F - 39.0 °F 51% 30.07 in 10.0 mi East 9.2 mph - N/A   Mostly Cloudy
5:53 PM 57.9 °F - 37.9 °F 47% 30.05 in 10.0 mi SE 11.5 mph - N/A   Clear
6:53 PM 55.9 °F - 36.0 °F 47% 30.04 in 10.0 mi SSE 9.2 mph - N/A   Clear
7:53 PM 54.0 °F - 35.1 °F 49% 30.04 in 10.0 mi SE 9.2 mph - N/A   Clear
8:53 PM 53.1 °F - 33.1 °F 47% 30.04 in 10.0 mi SSE 8.1 mph - N/A   Partly Cloudy
9:53 PM 50.0 °F - 36.0 °F 59% 30.04 in 10.0 mi South 8.1 mph - N/A   Scattered Clouds
10:53 PM 50.0 °F - 35.1 °F 57% 30.03 in 10.0 mi SSE 8.1 mph - N/A   Scattered Clouds
11:53 PM 50.0 °F - 35.1 °F 57% 30.00 in 10.0 mi SSE 9.2 mph - N/A   Partly Cloudy